Weather Roundup
Issued by NWS Corpus Christi, TX

Home | Current Version | Previous Version | Text Only | Print | Product List | Glossary On
Versions: 1 2 3 4 5 6 7 8 9 10 11 12 13 14 15 16 17 18 19 20 21 22 23 24 25 26 27 28 29 30 31 32 33 34 35 36 37 38 39 40 41 42 43 44 45 46 47 48 49 50
000
ASUS44 KCRP 030010
HRRCRP

SOUTH TEXAS REGIONAL WEATHER ROUNDUP
NATIONAL WEATHER SERVICE CORPUS CHRISTI TX
700 PM CDT THU JUL 02 2015


TXZ229>244-030100-
...CORPUS CHRISTI AREA OBSERVATIONS...

CITY           SKY/WX    TMP DP  RH WIND       PRES   REMARKS
CORPUS CHRISTI PTSUNNY   86  76  71 S16       29.94F HX  96
NAS CORPUS CHR PTSUNNY   84  78  82 S10       29.94F HX  95
ROCKPORT       LGT RAIN  86  76  71 SE13G20   29.94F HX  96
KINGSVILLE NAS PTSUNNY   85  78  80 SE15      29.93F HX  96
ALICE          MOSUNNY   86  75  69 SE14      29.92F HX  95
FALFURRIAS     MOSUNNY   85  74  67 SE7       29.92F HX  93
$$

...VICTORIA AREA OBSERVATIONS...

CITY           SKY/WX    TMP DP  RH WIND       PRES   REMARKS
VICTORIA       MOSUNNY   86  75  69 S15       29.97F HX  95
BEEVILLE       FAIR      84  78  82 SE13G21   29.95S HX  94
PLEASANTON     SUNNY     84  69  60 SE14G22   29.94F
SAN ANTONIO    MOSUNNY   85  68  56 S21G26    29.95F
$$

...LAREDO AREA OBSERVATIONS...

CITY           SKY/WX    TMP DP  RH WIND       PRES   REMARKS
LAREDO         MOSUNNY   91  67  45 SE18G29   29.89F HX  94
COTULLA        LGT RAIN  88  68  51 SE21G26   29.89F HX  91
DEL RIO        SUNNY     89  67  47 SE12G21   29.87F HX  92
MCALLEN        SUNNY     89  71  55 SE13      29.91F HX  95
HEBBRONVILLE     N/A     87  65  47 SE17      29.93F
$$

...OTHER TEXAS OBSERVATIONS...

CITY           SKY/WX    TMP DP  RH WIND       PRES   REMARKS
BROWNSVILLE    SUNNY     84  73  69 S12       29.93F HX  90
HOUSTON        PTSUNNY   88  73  61 S10       29.97F HX  95
COL. STATION   SUNNY     88  70  55 S15       29.95F HX  93
AUSTIN         PTSUNNY   83  71  67 S13       29.94F
WACO           MOSUNNY   86  69  56 S15       29.93F HX  90
FORT WORTH     PTSUNNY   91  67  44 S22       29.88F HX  94
WICHITA FALLS  CLOUDY    88  67  49 S14       29.84F HX  91
LUBBOCK        CLOUDY    86  61  42 SE14      29.97F
EL PASO        PTSUNNY  101  47  16 SW8       29.88F HX  97
$$

...MARINE OBSERVATIONS...

STATION/POSITION TIME  SKY/WX   TEMP    WIND        PRES    VSBY  WAVE   SWELL
                                AIR SEA DIR/SP/G                  HT/PER HT/PER
                 (UTC)          (F)     (DEG/KT/KT) (MB)    (MI)  (FT/S) (FT/S)
PORT ARANSAS     2300            82 81  140/ 11/ 13 1015.6F
BUOY 90 E PORT A NOT AVBL
BUOY 45 SE BAFFI 2350            83 84  150/ 16/ 17 1013.6F         4/ 8   2/ 8
BUOY 200 E PT IS 2350            85 84  140/ 12/ 14 1015.7F         4/ 7   2/ 7
BUOY 15 E GALVES 2350            84 83  170/ 12/ 16 1015.2F         3/ 6   2/ 6
$$


USA.gov is the U.S. government's official web portal to all federal, state and local government web resources and services.